Theta_e
322 322 322 323 323 326 329 333 333 336 339 336 336 335 347 351 354 355 348 346 346 327 332 336 336 339 342 342 342 339 337 334 324 322 323 324 324 324 324 324 324 323 322 320 320 320 322 323 326
322 322 323 323 324 327 331 335 340 339 338 337 336 336 349 351 350 348 349 348 347 326 333 336 336 337 341 342 342 343 339 337 327 322 322 322 323 324 324 324 322 321 320 320 320 320 322 323 325
320 321 323 319 323 327 330 338 337 339 338 338 336 336 342 346 345 345 346 346 346 326 333 336 335 337 339 341 342 343 343 339 335 325 322 322 321 321 321 321 320 321 321 321 320 320 320 321 322
319 320 322 319 321 325 330 332 338 339 338 337 337 338 342 349 345 344 347 348 347 328 334 336 336 338 338 339 340 342 344 342 339 332 326 323 322 322 321 320 320 320 320 320 320 320 320 319 319
320 320 318 321 322 326 328 331 337 338 334 335 335 339 343 347 347 345 346 348 346 329 336 336 336 337 337 337 337 340 343 345 341 340 331 326 323 322 321 321 321 320 320 320 320 320 320 320 319
318 320 318 319 322 326 326 326 335 335 334 333 334 341 342 347 346 346 347 348 347 346 330 333 335 336 336 335 333 336 341 343 344 341 339 330 324 322 321 321 321 320 320 320 320 320 320 319 319
317 316 317 319 321 323 325 327 326 330 331 330 332 333 338 346 346 346 347 348 347 347 345 332 332 335 336 334 333 331 336 342 345 343 341 336 328 323 321 321 321 321 320 320 320 320 319 319 319
318 315 317 317 320 321 323 325 327 329 329 328 331 330 330 341 346 346 347 347 348 347 347 347 331 333 335 336 335 332 332 340 344 345 343 341 333 325 322 321 321 321 320 320 320 320 319 319 319
317 313 314 316 317 319 322 321 324 327 328 327 327 328 329 329 334 344 346 348 347 347 344 346 332 333 335 336 336 334 330 338 344 345 344 343 340 330 323 321 321 321 320 320 320 319 319 320 321
315 315 316 318 319 318 320 321 322 324 324 325 326 327 325 326 328 331 340 346 347 345 344 342 334 330 335 336 336 335 331 334 343 344 344 344 341 336 326 322 321 321 320 320 320 320 320 320 330
316 315 318 320 320 322 321 321 322 322 322 322 322 323 324 323 326 328 331 337 345 345 344 345 343 337 334 334 336 336 334 330 333 342 344 343 343 340 331 324 321 321 321 320 320 320 320 321 330
315 317 319 319 320 320 320 322 321 321 321 322 322 321 321 321 323 326 327 328 337 345 349 348 345 344 348 343 343 342 338 334 328 327 328 335 339 339 333 325 322 322 322 321 320 320 323 332 341
315 316 319 320 320 320 321 320 320 320 321 321 320 320 320 320 320 323 324 324 327 340 350 347 347 339 336 331 334 346 346 345 333 328 325 323 328 333 332 327 326 327 328 325 321 321 325 333 336
317 318 319 320 320 320 319 319 320 320 320 320 320 320 320 320 320 320 324 324 324 325 334 344 344 343 340 333 334 340 348 347 341 330 326 322 321 326 331 328 328 328 332 335 333 329 327 330 334
319 316 317 318 319 318 319 317 318 320 320 320 320 320 320 320 320 320 321 322 323 329 331 336 343 343 340 335 337 351 350 348 346 342 339 332 324 323 330 331 331 327 333 337 339 337 338 334 336
316 316 315 316 318 319 318 316 318 320 320 320 320 320 320 320 320 320 321 322 324 324 328 339 342 342 339 332 349 350 352 350 347 343 341 341 340 335 329 332 332 331 334 339 339 338 339 335 333
315 315 316 317 318 318 318 316 318 320 320 320 320 321 321 321 320 321 321 321 324 323 324 328 344 343 341 337 338 345 348 351 350 345 344 344 342 341 341 334 329 329 332 339 341 340 341 338 334
315 316 316 318 318 317 317 317 317 320 319 321 321 320 321 321 320 320 321 321 321 322 323 327 329 328 341 349 348 348 352 347 351 349 346 347 343 342 342 342 341 335 337 336 338 339 339 338 338
316 317 317 317 318 318 316 317 317 319 319 319 321 321 321 321 321 321 321 320 320 322 322 323 323 322 322 341 348 348 349 348 348 350 349 348 348 345 344 344 343 342 341 340 338 337 335 335 334
317 316 316 318 319 318 316 317 318 318 319 320 321 321 321 321 321 321 321 321 321 321 322 322 321 321 320 322 332 346 347 346 346 345 349 348 347 347 346 345 344 344 344 343 343 345 342 341 341
318 318 318 319 319 318 317 317 318 320 320 321 321 321 321 321 322 322 321 321 321 321 322 323 323 322 321 321 321 321 337 348 347 348 346 346 345 344 347 345 347 346 347 347 340 344 348 345 344
317 318 318 319 318 317 318 317 316 319 319 319 320 321 321 321 321 321 323 324 324 323 322 322 322 324 323 322 324 323 321 324 338 341 344 345 347 343 335 329 333 340 341 343 343 340 344 345 341
318 319 318 318 316 317 317 315 316 319 319 319 318 321 321 321 321 322 323 323 323 323 322 322 322 322 325 327 327 327 328 327 326 330 337 340 338 341 342 333 331 340 329 335 340 342 340 342 341
319 318 317 317 316 316 316 317 316 318 319 320 324 324 322 322 323 323 322 322 322 322 322 322 323 323 324 326 328 328 329 329 328 323 328 332 336 336 339 340 341 340 335 340 338 340 339 337 337
318 317 317 317 317 317 317 319 317 321 323 325 324 323 323 323 322 322 321 321 321 321 321 322 322 322 322 322 322 324 324 326 328 329 327 322 324 329 334 334 337 340 340 340 339 338 337 337 338
320 319 318 321 321 322 322 323 322 322 325 324 324 323 323 322 321 321 321 320 320 320 320 320 320 321 321 321 321 322 322 322 326 327 328 324 320 321 321 322 326 330 333 332 336 335 333 328 325
322 320 321 322 323 322 322 322 321 323 324 324 324 323 322 321 321 321 320 320 319 319 319 319 319 319 320 319 320 320 321 321 321 323 328 330 328 322 321 321 322 326 329 331 330 332 329 328 328
321 321 324 324 329 327 323 323 325 326 325 324 323 322 322 321 320 320 319 319 319 319 317 317 317 319 320 319 319 319 318 319 321 322 322 326 329 328 326 324 324 326 326 325 331 335 328 329 328
319 319 322 322 323 328 323 321 324 324 322 322 321 321 322 321 320 320 319 318 317 317 317 316 316 316 318 319 318 318 319 319 318 318 317 318 324 327 328 327 329 331 333 335 337 336 334 331 328
317 318 322 325 327 324 325 324 321 321 320 320 320 319 320 321 319 318 317 317 317 317 317 316 315 315 316 316 316 316 316 315 317 318 317 316 315 321 326 327 328 330 333 333 334 335 334 329 327
Wind_Speed
11 11 12 13 1 2 7 8 10 8 1 20 18 10 11 12 5 7 21 16 10 24 27 27 26 26 26 24 22 21 19 17 17 18 18 18 17 17 16 15 14 12 11 10 9 9 9 8 8
11 12 10 5 2 3 6 4 5 7 8 14 11 8 20 11 22 25 21 16 11 20 26 27 26 25 24 23 21 20 19 17 16 17 17 16 15 15 14 13 12 11 10 9 8 8 7 6 6
12 11 5 3 4 7 4 4 5 8 9 6 8 3 9 14 23 21 16 15 12 22 24 26 26 25 24 22 21 20 19 17 15 16 16 15 14 13 13 12 11 11 10 9 8 7 6 5 4
7 5 7 0 9 12 14 12 2 6 16 2 9 10 22 18 21 22 18 14 13 22 24 24 24 23 22 21 20 20 19 18 16 14 14 14 13 13 12 11 10 10 9 8 7 6 5 4 3
5 6 2 4 8 13 13 15 16 3 9 7 8 7 10 20 22 23 17 10 7 20 23 23 22 22 21 20 20 19 19 18 17 15 13 12 12 11 11 10 10 9 7 6 5 5 4 3 3
3 4 2 5 8 14 7 19 10 3 5 13 2 13 7 20 20 20 15 9 7 10 17 20 21 21 21 20 19 20 20 19 18 16 14 12 11 11 10 9 9 9 7 6 4 4 3 2 1
6 1 6 8 10 15 13 16 7 2 6 7 6 7 12 18 12 16 15 17 12 8 10 15 20 21 20 19 18 19 20 21 21 18 16 13 12 12 11 9 9 8 7 6 5 4 3 2 1
9 3 4 7 11 15 19 17 17 9 4 9 2 4 4 9 16 12 16 19 16 10 8 12 21 22 22 22 19 17 19 21 21 20 17 15 13 13 12 12 11 9 8 7 5 4 3 2 1
20 2 5 8 11 15 21 11 23 2 12 13 5 10 10 4 5 11 16 22 19 14 10 9 19 22 21 20 19 18 19 22 23 22 20 19 17 15 15 14 14 12 10 9 7 6 5 4 3
9 5 9 10 13 8 16 9 10 5 4 2 10 11 4 3 5 11 17 26 26 22 16 13 12 21 21 20 20 20 21 24 26 26 25 23 20 18 17 17 16 15 14 12 11 9 8 5 4
12 10 8 18 26 18 9 6 10 4 3 4 5 4 13 8 11 14 17 16 31 27 24 20 13 11 17 20 20 21 22 24 27 28 27 24 23 21 20 21 20 20 18 17 15 13 11 8 10
7 18 19 28 27 20 6 9 8 5 3 10 10 16 14 18 12 3 8 9 5 16 28 24 16 15 6 8 11 13 19 24 26 29 29 29 28 26 24 23 23 21 20 19 18 16 12 10 11
9 10 25 29 29 24 12 7 8 13 14 16 17 18 19 15 19 15 9 7 6 4 26 32 27 18 15 12 11 20 23 17 27 28 30 30 31 30 27 27 24 22 19 19 21 19 18 14 13
22 22 21 24 28 15 7 6 12 18 18 17 18 22 19 20 20 19 20 13 8 5 7 18 30 24 11 21 24 22 23 25 19 24 28 30 30 31 31 30 29 27 24 20 19 19 20 18 16
22 8 9 12 8 11 17 8 10 22 22 25 26 21 21 21 22 21 21 23 16 7 4 13 20 27 21 25 23 25 25 22 22 21 20 24 27 31 34 35 34 31 27 23 20 20 16 20 21
7 6 5 6 7 14 13 10 11 24 29 30 27 30 23 26 24 22 25 21 16 8 6 6 18 17 22 23 21 32 25 24 27 26 25 25 23 27 35 38 39 35 33 28 27 27 26 26 24
5 5 7 9 15 14 16 11 13 29 25 20 32 22 18 19 19 21 17 11 9 7 6 8 9 5 20 24 25 33 33 30 28 29 28 31 30 29 30 37 41 38 37 37 35 33 32 31 31
8 6 8 13 18 14 19 18 10 15 15 5 15 16 15 16 25 25 24 23 19 15 12 14 14 10 8 22 23 26 24 30 35 35 36 33 39 37 35 34 35 38 38 38 42 40 38 34 34
12 12 12 10 8 5 5 7 9 13 14 11 19 23 26 28 24 18 17 25 27 20 17 19 16 16 16 16 25 27 27 25 31 37 38 39 38 38 38 40 37 39 41 39 37 38 39 39 39
15 15 14 7 9 7 8 8 8 8 6 13 15 24 31 30 29 26 23 19 22 24 22 22 20 18 18 12 14 22 24 28 30 33 32 38 40 39 43 44 42 40 42 40 36 35 37 38 36
8 6 7 5 10 10 8 9 8 5 8 21 27 33 23 32 31 31 30 27 25 25 15 10 7 5 7 12 14 16 24 29 25 30 35 38 38 38 43 38 44 47 42 38 37 39 40 43 40
7 10 12 10 6 9 3 12 7 8 10 14 25 33 34 31 23 19 16 16 23 20 14 10 6 2 5 11 11 17 22 29 32 30 29 30 36 36 40 45 49 50 42 39 38 44 46 43 43
6 7 9 8 7 2 6 4 5 7 12 14 11 35 40 37 32 21 21 21 15 10 5 4 6 5 5 5 9 14 17 24 31 34 35 36 30 28 39 49 51 50 52 48 43 39 43 46 47
5 5 8 6 2 8 6 8 8 13 13 8 6 8 29 21 25 25 20 15 12 9 6 4 5 7 8 7 9 12 16 20 25 33 37 36 37 34 23 33 42 49 36 41 40 34 36 38 43
5 4 4 4 4 8 9 11 8 5 7 4 7 21 28 28 24 20 18 13 7 4 2 3 3 6 9 10 13 13 13 19 24 29 32 34 40 40 38 31 20 31 39 42 41 32 34 33 40
7 0 3 5 3 4 10 5 5 6 13 18 14 25 20 21 21 17 11 6 3 2 3 5 7 10 17 19 19 19 16 16 21 25 28 30 33 36 38 38 36 30 25 32 33 36 40 48 52
6 5 2 3 5 3 4 9 11 6 9 12 21 22 20 23 16 12 7 4 1 3 7 9 12 15 18 18 20 22 22 25 26 26 24 28 35 36 37 38 40 41 35 29 31 31 33 36 49
3 6 4 3 1 5 5 6 2 8 8 12 13 17 18 13 11 8 8 9 3 2 2 6 9 13 17 16 15 17 18 25 28 33 31 27 28 30 34 36 37 38 39 38 35 29 32 35 47
5 4 3 4 5 5 2 5 5 2 8 10 12 22 15 11 10 9 7 9 11 13 16 19 19 14 14 14 12 13 17 21 22 28 31 33 30 29 30 30 29 31 31 30 32 30 30 33 39
10 6 4 3 3 4 3 10 10 6 7 9 13 20 16 14 13 15 18 17 17 17 17 17 18 20 12 13 16 17 19 19 20 23 28 33 34 32 30 28 30 29 26 27 26 30 32 36 39
Wind_Direction
301 302 311 309 53 150 248 254 264 341 26 20 18 33 79 67 83 143 154 186 182 166 158 157 158 156 153 150 146 144 142 136 135 138 139 137 138 139 136 133 128 124 121 117 114 113 115 118 122
299 313 322 260 170 273 266 249 20 347 292 27 341 11 80 79 109 134 148 159 172 171 161 158 159 158 157 154 151 148 148 143 140 142 144 144 145 145 142 138 133 130 127 124 121 120 121 123 125
297 306 293 192 209 240 267 307 245 161 263 322 317 356 66 117 116 141 160 166 177 172 163 160 161 160 160 159 156 156 155 154 150 149 151 151 152 152 150 144 142 138 135 132 128 129 129 130 124
315 316 248 162 262 264 249 280 109 26 283 331 345 80 64 127 129 149 164 175 167 171 166 165 163 164 164 163 165 164 164 163 162 158 160 162 162 160 157 153 150 145 144 142 141 138 134 132 130
244 267 278 265 255 263 265 266 153 225 318 57 24 88 92 104 120 145 162 174 159 171 170 169 168 168 168 168 170 173 173 173 171 170 170 171 171 169 166 163 158 155 154 151 149 144 140 146 147
262 223 308 257 276 268 300 318 129 115 340 344 89 101 107 125 117 142 154 158 202 144 165 173 174 173 173 173 176 179 180 181 182 180 180 181 182 180 177 177 173 170 168 167 167 163 167 165 165
220 286 237 261 268 286 281 308 316 126 258 38 24 79 67 109 123 140 156 173 181 183 181 180 182 179 180 179 182 185 188 188 189 190 190 190 190 191 190 192 192 188 185 185 184 186 193 189 187
242 196 264 271 271 270 289 289 263 252 187 106 111 87 113 118 119 143 158 171 176 195 210 198 193 187 185 185 186 190 192 196 196 197 200 202 204 202 201 199 200 205 205 203 207 210 210 231 242
231 240 243 251 259 274 288 307 298 216 189 99 117 89 125 136 175 171 179 175 183 204 217 210 201 194 193 192 192 193 196 198 200 203 207 209 210 211 210 210 210 209 209 212 215 222 226 228 254
203 218 231 250 260 262 280 358 328 39 29 166 155 216 262 200 209 230 219 187 186 194 214 216 197 196 197 200 202 202 201 201 204 207 210 214 215 217 217 218 216 217 216 212 214 222 226 233 202
248 231 243 247 254 304 261 328 310 35 17 351 340 246 274 308 238 222 246 241 198 201 198 216 194 176 204 208 210 214 213 210 211 214 217 220 223 222 223 220 221 218 220 221 218 218 226 230 210
242 240 239 261 272 282 296 305 296 306 238 281 282 286 281 284 277 243 256 305 243 197 199 196 186 199 172 219 212 223 236 228 222 223 221 221 223 227 227 225 225 225 230 229 230 229 224 211 216
238 237 236 248 263 268 261 251 279 282 276 266 257 262 270 283 275 265 251 315 333 100 184 194 190 211 203 240 227 236 243 251 238 231 231 225 226 225 225 230 229 227 228 231 235 231 225 220 231
248 236 238 244 261 272 259 239 246 269 270 267 250 249 253 260 269 275 251 271 291 274 226 201 206 203 242 233 244 239 241 249 247 233 235 238 229 228 224 229 231 228 226 224 231 228 226 226 228
281 279 276 236 252 269 273 264 243 248 254 253 244 238 231 250 246 257 251 261 272 242 226 210 206 213 221 235 214 231 235 241 250 243 245 243 239 229 226 226 232 235 230 230 234 232 231 231 233
307 307 266 272 242 249 227 245 241 239 240 241 245 228 235 238 238 253 249 246 235 228 175 184 202 224 231 214 217 227 230 229 240 247 248 249 245 241 232 229 230 231 230 229 228 231 229 233 234
304 233 275 267 241 242 218 235 228 243 251 242 230 213 223 233 248 252 235 227 210 217 180 157 169 228 224 220 224 228 232 233 229 235 246 250 248 244 241 236 237 235 230 223 221 228 230 232 238
247 252 242 246 259 231 239 224 229 233 262 167 179 206 227 239 248 251 235 241 246 246 230 177 191 233 225 232 237 247 241 237 234 227 234 241 245 245 244 246 248 245 239 231 229 229 228 233 238
265 272 277 275 280 15 261 194 220 228 246 230 207 210 220 238 241 243 259 235 235 245 240 236 242 248 270 226 231 239 242 248 242 240 234 239 245 246 250 249 250 251 245 244 240 242 241 242 242
245 260 273 290 326 345 313 272 245 230 236 262 256 236 231 227 228 227 233 218 222 228 238 249 254 258 260 273 247 240 252 256 259 253 250 244 245 244 250 251 250 249 245 243 240 246 248 246 239
286 284 292 287 314 312 322 305 312 277 277 274 263 265 255 225 224 223 227 232 224 220 203 184 212 252 281 292 286 267 249 250 258 258 257 254 251 247 244 251 262 257 253 251 244 240 242 239 239
250 281 295 284 258 275 301 286 299 283 257 256 251 245 246 244 230 222 210 156 144 137 148 156 152 146 310 299 279 283 280 267 258 264 268 269 264 257 275 246 253 261 260 263 259 247 241 243 245
248 259 260 268 277 305 303 313 277 267 279 274 246 234 235 234 228 170 153 144 141 139 150 174 212 240 229 244 278 284 278 267 273 264 264 266 275 274 261 250 227 238 276 255 259 250 244 244 246
16 0 346 341 327 268 239 250 271 260 260 310 343 332 224 185 149 131 123 125 131 146 161 200 240 240 257 277 288 300 305 301 289 272 270 267 265 271 277 256 255 262 259 252 257 252 253 258 262
339 11 316 314 295 251 239 265 228 269 326 325 29 77 103 111 117 115 113 109 113 111 317 270 250 252 280 288 283 286 305 299 294 293 289 282 276 272 269 277 281 266 261 259 259 243 248 255 257
331 11 185 256 258 299 330 260 240 347 16 21 37 115 109 104 109 110 107 95 96 124 257 276 276 270 273 279 275 275 288 299 295 296 301 297 288 284 279 278 281 286 272 272 268 268 270 264 261
341 353 357 9 22 294 228 281 276 18 2 21 44 66 86 99 97 92 85 89 73 326 312 294 288 286 280 274 272 278 279 280 281 283 284 290 298 294 289 284 280 281 280 280 276 274 277 273 252
333 316 10 44 316 267 239 251 216 43 3 7 7 71 62 59 60 59 37 17 348 288 317 327 321 295 265 266 272 278 277 276 279 279 284 289 284 292 300 298 292 289 284 282 279 275 268 262 249
287 269 207 182 181 219 248 250 124 112 42 21 24 14 358 31 21 355 325 312 317 304 297 302 297 298 274 265 275 284 287 283 286 286 292 293 290 287 293 301 305 293 290 282 279 270 253 251 250
283 305 44 189 254 240 236 255 310 94 56 25 347 329 317 307 327 327 316 295 294 298 299 290 280 277 280 273 272 274 282 294 298 289 294 297 296 291 293 296 296 292 290 285 281 261 247 243 242